Location: *
(37.9500°N, 27.3666°E)
Time: 13:08:59
(UTC+00:00)

Cosmos 1544 Rocket - Pass Details

Date: 24 October 2021
Orbit: 603 x 632 km, 82.5° (Epoch: 02 December)

Event Time Altitude Azimuth Distance (km) Brightness Sun altitude
Rises 15:40:28 0° 167° (SSE) 2,907 7.0 -4.6°
Reaches altitude 10° 15:42:48 10° 159° (SSE) 2,005 6.1 -5.0°
Maximum altitude 15:46:54 38° 92° (E) 967 4.1 -5.8°
Drops below altitude 10° 15:51:03 10° 24° (NNE) 2,017 5.9 -6.6°
Sets 15:53:24 0° 16° (NNE) 2,927 6.8 -7.1°
